Weather History for PANN - October, 2011

Change the Weather History Date:

Tuesday, October 18, 2011

  Actual Average Record
Temperature  
Mean Temperature 28 °F -  
Max Temperature 30 °F 28 °F 59 °F (1960)
Min Temperature 26 °F 15 °F 0 °F (2008)
Degree Days  
Heating Degree Days 37    
Moisture  
Dew Point 27 °F    
Average Humidity 94    
Maximum Humidity 100    
Minimum Humidity 86    
Precipitation  
Precipitation 0.13 in - - ()
Sea Level Pressure  
Sea Level Pressure 29.72 in    
Wind  
Wind Speed 3 mph (WNW)    
Max Wind Speed 9 mph    
Max Gust Speed -    
Visibility 4 miles    
Events Snow    
Averages and records for this station are not official NWS values.
T = Trace of Precipitation, MM = Missing Value Source: NWS Daily Summary

Daily Weather History Graph

Daily Weather History Graph

Search for Another Location

Airport or City:

Trip Planner

Search our weather history database for the weather conditions in past years. The results will help you decide how hot, cold, wet, or windy it might be!

Date:

Astronomy

Oct. 18, 2011 Rise Set
Actual Time 8:56 AM AKDT 6:24 PM AKDT
Civil Twilight 8:06 AM AKDT 7:14 PM AKDT
Nautical Twilight 7:10 AM AKDT 8:10 PM AKDT
Astronomical Twilight 6:13 AM AKDT 9:06 PM AKDT
Moon 9:49 PM AKDT (10/18) 4:26 PM AKDT (10/18)
Length of Visible Light 11h 07m
Length of Day
9h 27m
Waning Gibbous, 63% of the Moon is Illuminated
Oct 18
Waning Gibbous
Oct 19
Last Quarter
Oct 26
New
Nov 2
First Quarter
Nov 10
Full

Hourly Weather History & Observations

Time (AKDT) Temp. Windchill Dew Point Humidity Pressure Visibility Wind Dir Wind Speed Gust Speed Precip Events Conditions
12:26 AM 30.2 °F - 28.4 °F 93% 29.84 in 6.0 mi Calm Calm - N/A   Overcast
12:53 AM 30.0 °F - 28.9 °F 96% 29.86 in 10.0 mi Calm Calm - N/A   Overcast
1:53 AM 30.0 °F - 28.0 °F 92% 29.84 in 10.0 mi Calm Calm - N/A   Overcast
2:16 AM 30.2 °F - 28.4 °F 93% 29.81 in 10.0 mi Calm Calm - N/A   Overcast
2:53 AM 30.0 °F - 28.9 °F 96% 29.83 in 6.0 mi Calm Calm - N/A   Overcast
3:48 AM 28.4 °F 23.3 °F 26.6 °F 93% 29.78 in 10.0 mi NW 4.6 mph - N/A   Overcast
3:53 AM 28.9 °F 21.1 °F 28.0 °F 96% 29.81 in 10.0 mi NW 8.1 mph - N/A   Overcast
4:07 AM 28.4 °F 20.4 °F 26.6 °F 93% 29.77 in 7.0 mi NNW 8.1 mph - N/A   Overcast
4:28 AM 28.4 °F 21.2 °F 28.4 °F 100% 29.76 in 2.0 mi NNW 6.9 mph - N/A   Overcast
4:35 AM 28.4 °F 20.4 °F 28.4 °F 100% 29.76 in 1.8 mi NW 8.1 mph - N/A   Overcast
4:41 AM 28.4 °F 21.2 °F 28.4 °F 100% 29.76 in 3.0 mi NW 6.9 mph - N/A   Overcast
4:53 AM 28.0 °F 20.8 °F 28.0 °F 100% 29.79 in 8.0 mi NW 6.9 mph - N/A   Overcast
5:53 AM 28.0 °F 20.0 °F 27.0 °F 96% 29.77 in 5.0 mi NNW 8.1 mph - 0.00 in Snow Light Snow
6:17 AM 28.4 °F 24.6 °F 26.6 °F 93% 29.73 in 6.0 mi WNW 3.5 mph - 0.00 in   Overcast
6:53 AM 28.0 °F 20.8 °F 26.1 °F 92% 29.76 in 8.0 mi NNW 6.9 mph - 0.00 in Snow Light Snow
7:40 AM 28.4 °F 23.3 °F 26.6 °F 93% 29.71 in 1.8 mi NW 4.6 mph - 0.01 in Snow Light Snow
7:44 AM 28.4 °F 22.2 °F 24.8 °F 86% 29.71 in 2.0 mi NW 5.8 mph - 0.01 in Snow Light Snow
7:53 AM 28.0 °F 20.8 °F 25.0 °F 88% 29.74 in 5.0 mi NW 6.9 mph - 0.01 in Snow Light Snow
8:09 AM 26.6 °F - 26.6 °F 100% 29.71 in 10.0 mi Calm Calm - 0.00 in   Overcast
8:24 AM 26.6 °F - 26.6 °F 100% 29.71 in 9.0 mi Calm Calm - 0.00 in   Overcast
8:53 AM 27.0 °F 23.0 °F 26.1 °F 96% 29.73 in 6.0 mi WNW 3.5 mph - 0.00 in Snow Light Snow
9:05 AM 28.4 °F 19.7 °F 26.6 °F 93% 29.70 in 5.0 mi WNW 9.2 mph - 0.00 in Snow Light Snow
9:40 AM 28.4 °F 24.6 °F 26.6 °F 93% 29.69 in 9.0 mi WSW 3.5 mph - 0.00 in   Overcast
9:53 AM 28.0 °F 22.8 °F 26.1 °F 92% 29.72 in 10.0 mi WSW 4.6 mph - 0.00 in   Overcast
10:53 AM 28.0 °F 24.2 °F 26.1 °F 92% 29.71 in 3.0 mi WNW 3.5 mph - 0.00 in Snow Light Snow
10:59 AM 28.4 °F - 26.6 °F 93% 29.68 in 1.8 mi Calm Calm - 0.00 in Snow Light Snow
11:46 AM 28.4 °F 24.6 °F 26.6 °F 93% 29.68 in 2.0 mi West 3.5 mph - 0.01 in Snow Light Snow
11:53 AM 28.9 °F 23.9 °F 27.0 °F 92% 29.71 in 2.0 mi Variable 4.6 mph - 0.01 in Snow Light Snow
12:05 PM 28.4 °F 24.6 °F 26.6 °F 93% 29.68 in 1.8 mi WNW 3.5 mph - 0.00 in Snow Light Snow
12:53 PM 28.9 °F 21.9 °F 27.0 °F 92% 29.71 in 1.2 mi Variable 6.9 mph - 0.02 in Snow Light Snow
1:21 PM 30.2 °F 23.4 °F 28.4 °F 93% 29.68 in 2.5 mi West 6.9 mph - 0.01 in Snow Light Snow
1:44 PM 30.2 °F 25.4 °F 28.4 °F 93% 29.68 in 2.0 mi Variable 4.6 mph - 0.01 in Snow Light Snow
1:53 PM 30.0 °F 25.2 °F 28.0 °F 92% 29.71 in 2.5 mi Variable 4.6 mph - 0.01 in Snow Light Snow
1:56 PM 30.2 °F 25.4 °F 28.4 °F 93% 29.68 in 3.0 mi West 4.6 mph - 0.00 in Snow Light Snow
2:09 PM 30.2 °F 26.7 °F 28.4 °F 93% 29.68 in 2.5 mi WSW 3.5 mph - 0.00 in Snow Light Snow
2:32 PM 30.2 °F 26.7 °F 28.4 °F 93% 29.68 in 1.8 mi Variable 3.5 mph - 0.01 in Snow Light Snow
2:51 PM 30.2 °F 26.7 °F 28.4 °F 93% 29.68 in 1.5 mi WSW 3.5 mph - 0.01 in Snow Light Snow
2:53 PM 30.0 °F 25.2 °F 28.0 °F 92% 29.71 in 1.5 mi WSW 4.6 mph - 0.01 in Snow Light Snow
3:26 PM 30.2 °F 25.4 °F 28.4 °F 93% 29.68 in 2.0 mi WSW 4.6 mph - 0.01 in Snow Light Snow
3:36 PM 30.2 °F 26.7 °F 28.4 °F 93% 29.68 in 1.5 mi Variable 3.5 mph - 0.01 in Snow Light Snow
3:53 PM 30.0 °F 25.2 °F 28.0 °F 92% 29.71 in 1.8 mi Variable 4.6 mph - 0.02 in Snow Light Snow
4:20 PM 30.2 °F - 28.4 °F 93% 29.68 in 0.8 mi Calm Calm - 0.01 in Snow Light Snow
4:27 PM 28.4 °F 23.3 °F 28.4 °F 100% 29.68 in 1.0 mi WSW 4.6 mph - 0.01 in Snow Light Snow
4:34 PM 30.2 °F 26.7 °F 28.4 °F 93% 29.68 in 1.0 mi Variable 3.5 mph - 0.01 in Snow Light Snow
5:26 PM 30.2 °F 25.4 °F 28.4 °F 93% 29.68 in 1.8 mi Variable 4.6 mph - 0.00 in Snow Light Snow
5:33 PM 30.2 °F 26.7 °F 28.4 °F 93% 29.68 in 1.8 mi Variable 3.5 mph - 0.01 in Snow Light Snow
5:53 PM 30.0 °F 26.5 °F 28.0 °F 92% 29.71 in 2.0 mi WSW 3.5 mph - 0.01 in Snow Light Snow
6:00 PM 30.2 °F 26.7 °F 28.4 °F 93% 29.68 in 1.8 mi Variable 3.5 mph - 0.00 in Snow Light Snow
6:08 PM 30.2 °F 25.4 °F 28.4 °F 93% 29.68 in 1.8 mi West 4.6 mph - 0.00 in Snow Light Snow
6:19 PM 30.2 °F 26.7 °F 28.4 °F 93% 29.69 in 1.2 mi WSW 3.5 mph - 0.01 in Snow Light Snow
6:32 PM 30.2 °F 26.7 °F 28.4 °F 93% 29.68 in 1.5 mi Variable 3.5 mph - 0.01 in Snow Light Snow
6:44 PM 28.4 °F 24.6 °F 26.6 °F 93% 29.69 in 2.5 mi Variable 3.5 mph - 0.01 in Snow Light Snow
6:53 PM 28.9 °F 23.9 °F 27.0 °F 92% 29.72 in 3.0 mi Variable 4.6 mph - 0.01 in Snow Light Snow
7:23 PM 28.4 °F 24.6 °F 26.6 °F 93% 29.68 in 2.5 mi West 3.5 mph - 0.01 in Snow Light Snow
7:30 PM 28.4 °F 24.6 °F 26.6 °F 93% 29.68 in 3.0 mi West 3.5 mph - 0.01 in Snow Light Snow
7:53 PM 28.9 °F 25.2 °F 27.0 °F 92% 29.71 in 4.0 mi West 3.5 mph - 0.01 in Snow Light Snow
8:53 PM 28.9 °F - 27.0 °F 92% 29.72 in 4.0 mi Calm Calm - 0.01 in Snow Light Snow
9:11 PM 28.4 °F - 26.6 °F 93% 29.69 in 2.5 mi Calm Calm - 0.00 in Snow Light Snow
9:28 PM 28.4 °F - 26.6 °F 93% 29.69 in 3.0 mi Calm Calm - 0.00 in Snow Light Snow
9:49 PM 28.4 °F - 26.6 °F 93% 29.69 in 5.0 mi Calm Calm - 0.01 in Snow Light Snow
9:53 PM 28.9 °F - 27.0 °F 92% 29.72 in 5.0 mi Calm Calm - 0.01 in Snow Light Snow
10:16 PM 28.4 °F - 26.6 °F 93% 29.69 in 9.0 mi Calm Calm - 0.00 in   Overcast
10:47 PM 28.4 °F 24.6 °F 28.4 °F 100% 29.69 in 5.0 mi WSW 3.5 mph - 0.00 in Snow Light Snow
10:53 PM 28.9 °F 25.2 °F 27.0 °F 92% 29.73 in 5.0 mi Variable 3.5 mph - 0.00 in Snow Light Snow
11:12 PM 28.4 °F 24.6 °F 26.6 °F 93% 29.69 in 10.0 mi Variable 3.5 mph - 0.00 in   Overcast
11:41 PM 28.4 °F 24.6 °F 26.6 °F 93% 29.70 in 10.0 mi Variable 3.5 mph - 0.00 in   Overcast
11:53 PM 28.0 °F - 27.0 °F 96% 29.73 in 10.0 mi Calm Calm - 0.00 in   Overcast